[[{"header":{"parameterUnit":"m.s-1","parameterCategory":1,"la1":30.2991,"la2":30.254,"lo1":-89.0895,"lo2":-89.0444,"dy":0.0017,"dx":0.0017,"nx":28,"ny":28,"refTime":"2025-02-08T09:00:00:Z","depth":0,"parameterNumber":2,"parameterNumberName":"U-component_of_WINDS"},"data":[0,0,0,0,0,0,0,0,0,0,0,0,0,0,0,0,0,0,0,0,0,0,0,0,0,0,0,0,0,0,0,0,0,0,0,0,0,0,0,0,0,0,0,0,0,0,0,0,0,0,0,0,0,0,0,0,0,0,0.194,0.1939,0,0.1815,0.1814,0.1813,0.1749,0.1749,0.1749,0.1749,0.1622,0.1619,0.1615,0,0,0,0,0,0,0,0,0,0,0,0,0,0.2127,0.2124,0.1941,0.1939,0.1937,0.1816,0.1814,0.1812,0.1749,0.1749,0.1749,0.1749,0.1623,0.1619,0.1615,0,0,0,0,0,0,0,0,0,0,0,0,0,0.2029,0.2123,0.1941,0.1891,0.1886,0.1816,0.1814,0.1812,0.1749,0.1749,0.1749,0.1749,0.1624,0.162,0.1615,0.1585,0,0,0.1599,0.1597,0,0,0,0,0,0,0,0,0.2034,0.2022,0.19,0.1895,0.1888,0.1798,0.1833,0.1736,0.1749,0.1801,0.1749,0.1749,0.1681,0.1671,0.1648,0.1579,0.1574,0.1599,0.1596,0.1594,0.1592,0,0,0,0,0,0,0,0.2041,0.2027,0.1891,0.1898,0.1891,0.1876,0.1862,0.1814,0.1743,0.1796,0.1792,0.1778,0.1677,0.1653,0.1644,0.1572,0.1599,0.1595,0.1591,0.159,0.1474,0.1474,0,0,0,0,0,0,0.2056,0.2033,0.1895,0.1887,0.1962,0.1873,0.1857,0.1827,0.1743,0.173,0.1778,0.1775,0.1661,0.165,0.164,0.16,0.1594,0.1589,0.1586,0.1475,0.1474,0.1474,0,0,0,0,0,0,0.206,0.2044,0.19,0.1959,0.1939,0.187,0.1836,0.1824,0.18,0.1729,0.1716,0.1766,0.1661,0.1647,0.1599,0.1595,0.1587,0.1582,0.1475,0.1475,0.1474,0.1521,0,0,0,0,0,0,0.2066,0.2046,0.2033,0.1959,0.1936,0.1861,0.1836,0.1822,0.1791,0.1786,0.1714,0.1702,0.166,0.1607,0.1594,0.1588,0.1578,0.1475,0.1475,0.1474,0.152,0.1523,0.1525,0,0,0,0,0,0.2072,0.2051,0.2033,0.2017,0.1919,0.1861,0.1848,0.18,0.1791,0.1778,0.1733,0.1704,0.1598,0.1603,0.1588,0.158,0.1475,0.1475,0.1474,0.1518,0.1522,0.1525,0,0,0,0,0,0,0.2127,0.2041,0.2019,0.1973,0.1925,0.1851,0.1833,0.1805,0.1758,0.1756,0.1698,0.1682,0.1641,0.1605,0.1613,0.1548,0.1533,0.153,0.1572,0.1575,0.1578,0.1587,0.1574,0,0,0,0,0,0.2134,0.2093,0.202,0.1987,0.1964,0.1903,0.1876,0.1843,0.179,0.177,0.1721,0.1672,0.1628,0.1599,0.1554,0.1515,0.1499,0.1502,0.1505,0.1507,0.1505,0.1483,0.1484,0.1474,0.1474,0.1474,0,0,0.2147,0.2095,0.2073,0.1997,0.1955,0.1916,0.1886,0.1845,0.1815,0.1764,0.1716,0.1679,0.1621,0.1577,0.1556,0.1547,0.1505,0.1507,0.151,0.1506,0.1483,0.1484,0.1485,0.1474,0.1474,0.1474,0,0,0.2151,0.2107,0.2075,0.2035,0.1973,0.1932,0.1925,0.1855,0.1828,0.178,0.1741,0.1705,0.1629,0.159,0.156,0.1551,0.1523,0.1538,0.1552,0.1532,0.1532,0.1533,0.1531,0.153,0.1536,0.1536,0.1536,0,0.2175,0.2113,0.2062,0.2023,0.1992,0.1944,0.1911,0.1875,0.1802,0.1781,0.1772,0.1677,0.1634,0.1582,0.158,0.1557,0.1547,0.1546,0.1536,0.1536,0.1536,0.1533,0.1532,0.1539,0.1538,0.1538,0.1538,0,0.2147,0.2105,0.2086,0.2017,0.1983,0.1948,0.1893,0.1865,0.1835,0.1797,0.1749,0.1696,0.164,0.1625,0.1596,0.1569,0.1566,0.1547,0.1532,0.154,0.1536,0.1535,0.1542,0.1541,0.154,0.154,0,0,0.218,0.2084,0.2078,0.2047,0.1976,0.1943,0.1906,0.1852,0.1829,0.1781,0.175,0.1688,0.1671,0.1637,0.1603,0.1585,0.1583,0.1568,0.1566,0.1574,0.1551,0.1566,0.1565,0.1564,0.1564,0.1563,0.1557,0,0.2174,0.2106,0.2059,0.2009,0.1971,0.1926,0.1894,0.1848,0.1811,0.1774,0.1733,0.1691,0.1671,0.1651,0.1631,0.1587,0.1577,0.1587,0.1535,0.1534,0.1551,0.1563,0.1578,0.1574,0.1555,0.1554,0.1554,0,0.2158,0.2111,0.2058,0.1992,0.1974,0.1947,0.1894,0.1858,0.1806,0.178,0.1744,0.1709,0.167,0.1659,0.1605,0.1612,0.1588,0.1564,0.1563,0.1556,0.1545,0.1557,0.1571,0.1571,0.1551,0.1552,0.1552,0,0.2188,0.2112,0.207,0.2045,0.1968,0.1949,0.1917,0.1864,0.1835,0.1789,0.1769,0.172,0.1693,0.1656,0.161,0.1605,0.1561,0.1545,0.154,0.1541,0.1532,0.1533,0.1543,0.1517,0.1517,0.1517,0.1517,0,0.2186,0.2155,0.2083,0.2057,0.2022,0.197,0.1937,0.19,0.1854,0.1822,0.178,0.175,0.1691,0.1654,0.1618,0.158,0.1568,0.1547,0.1538,0.1551,0.1553,0.1534,0.1533,0.1516,0.1516,0.1516,0.1517,0,0.2214,0.2164,0.2116,0.2047,0.2029,0.2006,0.1948,0.1922,0.1884,0.1843,0.1831,0.1771,0.1726,0.1677,0.1615,0.1591,0.1555,0.1542,0.1573,0.1568,0.1565,0.1566,0.1563,0.156,0.1536,0.1537,0.1537,0,0.2215,0.2191,0.212,0.2095,0.2063,0.2024,0.1994,0.1943,0.1913,0.1853,0.1835,0.1787,0.1746,0.1677,0.1628,0.1582,0.1567,0.1569,0.1559,0.1574,0.1568,0.157,0.1568,0.1572,0.1572,0.1573,0.1573,0,0.2225,0.2202,0.216,0.211,0.2076,0.2035,0.1992,0.1974,0.1914,0.1884,0.1838,0.1806,0.1744,0.1697,0.1645,0.1612,0.1583,0.1577,0.1573,0.1586,0.1605,0.1595,0.1581,0.1577,0.1576,0.1576,0.1576,0.1576,0.2239,0.2216,0.2163,0.2118,0.2081,0.2042,0.2015,0.1974,0.1934,0.1879,0.1852,0.1807,0.1756,0.1683,0.1652,0.1616,0.1606,0.1601,0.16,0.1599,0.1603,0.1611,0.1606,0.1606,0.1606,0.1606,0.1606,0,0.2246,0.2211,0.217,0.2112,0.2077,0.2053,0.2005,0.1978,0.1938,0.1894,0.1855,0.1803,0.1758,0.1707,0.1659,0.1641,0.1627,0.163,0.1631,0.1624,0.1614,0.1622,0.1643,0.1643,0.1643,0.1643,0.1643,0.1643,0.2246,0.2205,0.2177,0.2118,0.2082,0.2037,0.2012,0.1977,0.1941,0.1885,0.1847,0.1815,0.1768,0.1717,0.1675,0.1662,0.1646,0.1654,0.1637,0.1628,0.1625,0.1622,0.1629,0.1651,0.1651,0.165,0.165,0.165]},{"header":{"parameterUnit":"m.s-1","parameterCategory":1,"la1":30.2991,"la2":30.254,"lo1":-89.0895,"lo2":-89.0444,"dy":0.0017,"dx":0.0017,"nx":28,"ny":28,"refTime":"2025-02-08T09:00:00:Z","depth":0,"parameterNumber":3,"parameterNumberName":"V-component_of_WINDS"},"data":[0,0,0,0,0,0,0,0,0,0,0,0,0,0,0,0,0,0,0,0,0,0,0,0,0,0,0,0,0,0,0,0,0,0,0,0,0,0,0,0,0,0,0,0,0,0,0,0,0,0,0,0,0,0,0,0,0,0,0.5623,0.5625,0,0.5778,0.578,0.5782,0.5823,0.5822,0.5821,0.582,0.599,0.5995,0.6,0,0,0,0,0,0,0,0,0,0,0,0,0,0.5376,0.538,0.5623,0.5625,0.5627,0.5778,0.578,0.5782,0.5823,0.5822,0.5821,0.582,0.5988,0.5994,0.6001,0,0,0,0,0,0,0,0,0,0,0,0,0,0.5502,0.5381,0.5622,0.5665,0.5671,0.5777,0.578,0.5783,0.5824,0.5822,0.5821,0.5819,0.5986,0.5994,0.6002,0.608,0,0,0.6026,0.603,0,0,0,0,0,0,0,0,0.5495,0.5511,0.5657,0.5662,0.5669,0.578,0.5755,0.5883,0.5824,0.5766,0.582,0.5819,0.5922,0.5935,0.5968,0.6088,0.6095,0.6027,0.6032,0.6036,0.6038,0,0,0,0,0,0,0,0.5486,0.5505,0.5685,0.5659,0.5666,0.5681,0.5698,0.5779,0.585,0.5771,0.5774,0.5791,0.5925,0.596,0.5972,0.6098,0.6027,0.6034,0.6039,0.6042,0.6298,0.63,0,0,0,0,0,0,0.5468,0.5497,0.568,0.5689,0.5576,0.5687,0.5705,0.5746,0.5849,0.5864,0.5792,0.5793,0.5947,0.5962,0.5978,0.6081,0.6036,0.6043,0.6048,0.6296,0.6299,0.6301,0,0,0,0,0,0,0.5463,0.5484,0.5673,0.5594,0.5619,0.5692,0.5738,0.5749,0.5784,0.5866,0.588,0.5814,0.5946,0.5967,0.6055,0.6087,0.6047,0.6054,0.6294,0.6297,0.63,0.6285,0,0,0,0,0,0,0.5456,0.5482,0.5509,0.5594,0.5623,0.5744,0.5739,0.5753,0.5797,0.5799,0.589,0.5904,0.5946,0.6043,0.6063,0.6098,0.606,0.6292,0.6295,0.6299,0.6283,0.6287,0.629,0,0,0,0,0,0.5447,0.5499,0.551,0.5532,0.5658,0.5745,0.5762,0.5808,0.5799,0.583,0.5883,0.5901,0.608,0.6052,0.6075,0.6112,0.629,0.6294,0.6299,0.6281,0.6286,0.629,0,0,0,0,0,0,0.5418,0.5511,0.5524,0.5605,0.5667,0.5752,0.5791,0.5811,0.5878,0.5878,0.5934,0.5955,0.6041,0.6086,0.6052,0.6197,0.6186,0.6195,0.6165,0.617,0.6174,0.6162,0.6067,0,0,0,0,0,0.5421,0.548,0.556,0.5624,0.5654,0.5717,0.5757,0.5787,0.5854,0.5882,0.5941,0.6009,0.6082,0.6128,0.6199,0.629,0.6314,0.6327,0.6331,0.6334,0.6342,0.6399,0.6408,0.6315,0.6315,0.6315,0,0,0.5428,0.5486,0.5521,0.562,0.5671,0.5736,0.5739,0.5806,0.5857,0.5893,0.598,0.6027,0.6108,0.6199,0.6242,0.6239,0.6373,0.6339,0.6341,0.6348,0.6405,0.6414,0.6421,0.6318,0.6318,0.6317,0,0,0.5475,0.5522,0.5583,0.5635,0.5712,0.5754,0.5769,0.5853,0.5884,0.5972,0.6003,0.6066,0.6187,0.6245,0.629,0.6364,0.6385,0.6386,0.6406,0.6461,0.6469,0.6476,0.6507,0.6517,0.6393,0.6393,0.6393,0,0.5475,0.5569,0.5613,0.568,0.5726,0.5759,0.5825,0.5874,0.5972,0.6005,0.5999,0.6156,0.6212,0.632,0.6338,0.6372,0.6396,0.6376,0.6463,0.6471,0.6478,0.6509,0.6519,0.6393,0.6393,0.6393,0.6393,0,0.5569,0.5634,0.5675,0.5766,0.5817,0.5882,0.5941,0.5988,0.6014,0.6059,0.6152,0.6221,0.6309,0.6337,0.6363,0.6451,0.6447,0.6451,0.6441,0.6486,0.6516,0.6527,0.6393,0.6393,0.6393,0.6393,0,0,0.56,0.5716,0.5731,0.5775,0.5865,0.5919,0.5989,0.6072,0.6114,0.6181,0.6245,0.635,0.6356,0.6407,0.6442,0.649,0.6551,0.649,0.6493,0.6502,0.6658,0.6655,0.6668,0.6564,0.6567,0.6569,0.6652,0,0.5661,0.5783,0.5826,0.593,0.5995,0.603,0.6092,0.6157,0.6202,0.6268,0.6319,0.6394,0.6393,0.6426,0.6475,0.6532,0.6583,0.6527,0.663,0.6633,0.6611,0.6682,0.668,0.6755,0.6664,0.6666,0.6667,0,0.5746,0.5813,0.5922,0.6008,0.6037,0.6091,0.6174,0.6234,0.6311,0.6341,0.6401,0.6433,0.6514,0.6498,0.6614,0.6575,0.6621,0.6656,0.666,0.6674,0.6654,0.6702,0.6779,0.6792,0.6685,0.6683,0.6682,0,0.5764,0.5881,0.5963,0.5999,0.61,0.6139,0.6183,0.6258,0.6307,0.6381,0.6415,0.6498,0.6545,0.6611,0.6668,0.665,0.6781,0.6768,0.6813,0.6812,0.684,0.6838,0.693,0.6864,0.6864,0.6864,0.6863,0,0.5828,0.5894,0.5972,0.6023,0.61,0.6153,0.623,0.6278,0.6345,0.641,0.6446,0.6507,0.6576,0.6648,0.6693,0.6786,0.6805,0.6836,0.6848,0.6835,0.6831,0.6867,0.6865,0.6867,0.6866,0.6866,0.6865,0,0.586,0.5914,0.6006,0.6095,0.6119,0.6173,0.6252,0.6305,0.6352,0.6435,0.6457,0.6533,0.662,0.6682,0.6795,0.6825,0.6927,0.6936,0.69,0.6906,0.6949,0.6946,0.7069,0.7091,0.7007,0.7008,0.7008,0,0.5899,0.595,0.6045,0.6089,0.6133,0.6204,0.6255,0.631,0.6362,0.6456,0.65,0.6589,0.6663,0.6801,0.687,0.6958,0.6973,0.701,0.6986,0.6973,0.6979,0.6976,0.6985,0.7014,0.7015,0.7015,0.7016,0,0.5963,0.5988,0.6057,0.6137,0.6196,0.6262,0.633,0.6365,0.6434,0.6492,0.6579,0.6637,0.6752,0.6842,0.6938,0.699,0.7017,0.7023,0.7039,0.7027,0.7005,0.7022,0.6913,0.702,0.702,0.7019,0.7019,0.7019,0.6003,0.6052,0.6127,0.6205,0.6261,0.6324,0.638,0.6435,0.6508,0.6604,0.6634,0.6727,0.6809,0.6939,0.6993,0.7071,0.7069,0.7091,0.7097,0.7103,0.7104,0.699,0.7088,0.7088,0.7088,0.7088,0.7088,0,0.6072,0.6123,0.6193,0.6286,0.6349,0.6365,0.6442,0.6495,0.6575,0.6647,0.672,0.6824,0.6913,0.6989,0.7083,0.7131,0.7146,0.7154,0.7153,0.7166,0.7098,0.7076,0.7141,0.7141,0.7141,0.714,0.714,0.714,0.6116,0.6202,0.6237,0.6355,0.6407,0.6495,0.6539,0.66,0.6658,0.6772,0.6845,0.6893,0.697,0.707,0.7154,0.7175,0.721,0.7216,0.724,0.7176,0.717,0.7164,0.7145,0.7222,0.7222,0.7303,0.7303,0.7304]}]]